Kalispell, MT

2:36 PM MDT on May 29, 2017 (GMT -0600)
Glacier Park International

Weather History for KGPI - February, 2013

Change the Weather History Date:

Tuesday, February 19, 2013

  Actual Average Record
Temperature  
Mean Temperature 33 °F 28 °F  
Max Temperature 41 °F 37 °F 53 °F (1930)
Min Temperature 25 °F 18 °F -6 °F (2006)
Degree Days  
Heating Degree Days 32 37  
Month to date heating degree days 618 733  
Since 1 July heating degree days 4991 5524  
Cooling Degree Days 0 0  
Month to date cooling degree days 0 0  
Year to date cooling degree days 0 0  
Moisture  
Dew Point 24 °F    
Average Humidity 70    
Maximum Humidity 92    
Minimum Humidity 48    
Precipitation  
Precipitation 0.00 in 0.04 in 0.44 in (1982)
Month to date precipitation 0.11 0.65  
Year to date precipitation 0.98 1.98  
Snow  
Snow 0.00 in - - ()
Month to date snowfall 0.5  
Year to date snowfall 6.5  
Since 1 July snowfall 15.3  
Snow Depth 0.00 in    
Sea Level Pressure  
Sea Level Pressure 29.78 in    
Wind  
Wind Speed 4 mph (North)    
Max Wind Speed 13 mph    
Max Gust Speed 18 mph    
Visibility 10 miles    
Events      
T = Trace of Precipitation, MM = Missing Value Source: NWS Daily Summary

Daily Weather History Graph

Daily Weather History Graph

Search for Another Location

Airport or City:

Trip Planner

Search our weather history database for the weather conditions in past years. The results will help you decide how hot, cold, wet, or windy it might be!

Date:

Astronomy

Feb. 19, 2013 Rise Set
Actual Time 7:36 AM MST 6:05 PM MST
Civil Twilight 7:04 AM MST 6:37 PM MST
Nautical Twilight 6:28 AM MST 7:14 PM MST
Astronomical Twilight 5:52 AM MST 7:50 PM MST
Moon 12:25 PM MST (2/19) 3:26 AM MST (2/19)
Length of Visible Light 11h 33m
Length of Day
10h 29m
Waxing Gibbous, 68% of the Moon is Illuminated
Feb 19
Waxing Gibbous
Feb 25
Full
Mar 4
Last Quarter
Mar 11
New
Mar 19
First Quarter

Hourly Weather History & Observations

Time (MST) Temp. Windchill Dew Point Humidity Pressure Visibility Wind Dir Wind Speed Gust Speed Precip Events Conditions
12:55 AM 27.0 °F - 24.1 °F 89% 29.86 in 10.0 mi Calm Calm - N/A   Partly Cloudy
1:55 AM 28.0 °F 21.7 °F 24.1 °F 85% 29.83 in 10.0 mi North 5.8 mph - N/A   Scattered Clouds
2:55 AM 28.0 °F - 23.0 °F 81% 29.81 in 10.0 mi Calm Calm - N/A   Partly Cloudy
3:55 AM 28.0 °F 24.2 °F 23.0 °F 81% 29.81 in 10.0 mi NNW 3.5 mph - N/A   Clear
4:55 AM 27.0 °F - 21.9 °F 81% 29.79 in 10.0 mi Calm Calm - N/A   Scattered Clouds
5:55 AM 27.0 °F 20.5 °F 21.0 °F 78% 29.80 in 10.0 mi North 5.8 mph - N/A   Partly Cloudy
6:55 AM 27.0 °F 19.5 °F 21.0 °F 78% 29.79 in 10.0 mi North 6.9 mph - N/A   Overcast
7:55 AM 27.0 °F 20.5 °F 21.0 °F 78% 29.79 in 10.0 mi North 5.8 mph - N/A   Mostly Cloudy
8:55 AM 28.0 °F 20.0 °F 21.0 °F 75% 29.78 in 10.0 mi North 8.1 mph - N/A   Overcast
9:55 AM 30.0 °F 22.4 °F 23.0 °F 75% 29.78 in 10.0 mi North 8.1 mph - N/A   Overcast
10:55 AM 32.0 °F 24.2 °F 21.9 °F 66% 29.75 in 10.0 mi North 9.2 mph - N/A   Overcast
11:55 AM 36.0 °F 28.0 °F 23.0 °F 59% 29.74 in 10.0 mi North 11.5 mph - N/A   Scattered Clouds
12:55 PM 37.0 °F 30.4 °F 21.9 °F 54% 29.73 in 10.0 mi North 9.2 mph - N/A   Mostly Cloudy
1:55 PM 39.9 °F 35.8 °F 21.9 °F 49% 29.71 in 10.0 mi North 5.8 mph - N/A   Overcast
2:55 PM 39.0 °F - 21.0 °F 49% 29.72 in 10.0 mi Calm Calm - N/A   Overcast
3:55 PM 39.0 °F - 21.9 °F 50% 29.73 in 10.0 mi Calm Calm - N/A   Overcast
5:55 PM 34.0 °F 29.8 °F 26.1 °F 73% 29.78 in 10.0 mi SSE 4.6 mph - N/A   Overcast
6:55 PM 32.0 °F 27.5 °F 27.0 °F 82% 29.79 in 10.0 mi SE 4.6 mph - N/A   Overcast
7:55 PM 30.0 °F - 27.0 °F 88% 29.81 in 10.0 mi Calm Calm - N/A   Mostly Cloudy
8:55 PM 28.9 °F 25.2 °F 27.0 °F 92% 29.82 in 10.0 mi NNE 3.5 mph - N/A   Overcast
9:55 PM 30.0 °F - 28.0 °F 92% 29.82 in 10.0 mi Calm Calm - N/A   Overcast
10:55 PM 30.2 °F - 28.4 °F 93% 29.75 in 10.0 mi Calm Calm - N/A   Overcast
11:55 PM 30.0 °F - 28.0 °F 92% 29.83 in 10.0 mi Calm Calm - N/A   Overcast